Regional Weather Roundup
Issued by NWS

Home | Current Version | Previous Version | Text Only | Print | Product List | Glossary On
Versions: 1 2 3 4 5 6 7 8 9 10 11 12 13 14 15 16 17 18 19 20 21 22 23 24 25 26 27 28 29 30 31 32 33 34 35 36 37 38 39 40 41 42 43 44 45 46 47 48 49 50
000
ASUS43 KMPX 261010
RWRMN
WEATHER ROUNDUP FOR MINNESOTA
NATIONAL WEATHER SERVICE TWIN CITIES/CHANHASSEN MN
500 AM CDT TUE MAY 26 2015


NOTE: "FAIR" INDICATES FEW OR NO CLOUDS BELOW 12,000 FEET WITH NO
SIGNIFICANT WEATHER AND/OR OBSTRUCTIONS TO VISIBILITY. N/A MEANS
CURRENT SKY AND/OR WEATHER CONDITIONS ARE NOT AVAILABLE.

MNZ060>063-068>070-261100-
   Twin Cities Metro

CITY           SKY/WX    TMP DP  RH WIND       PRES   REMARKS
TWIN CITIES    MOCLDY    57  56  96 NW3       29.78F
ST PAUL        MOCLDY    56  56 100 W5        29.78F
CRYSTAL        MOCLDY    56  54  93 NW7       29.78R FOG
BLAINE         MOCLDY    52  52 100 NW5       29.78F FOG
LAKEVILLE      MOCLDY    55  54  94 CALM      29.78R
EDEN PRAIRIE   CLOUDY    57  55  93 N6        29.77F
SOUTH ST PAUL  MOCLDY    58  57  95 CALM      29.78S
LAKE ELMO      FAIR      55  55 100 CALM      29.79F
$$
MNZ001>005-007-008-013>017-022>024-027-028-261100-
   Northwest Minnesota

CITY           SKY/WX    TMP DP  RH WIND       PRES   REMARKS
BEMIDJI          N/A     47  47 100 CALM      29.87R FOG
HALLOCK        CLEAR     52  48  87 S8        29.78F
ROSEAU         CLEAR     52  46  82 S5        29.81F
WARROAD        CLEAR     54  48  82 SW7       29.81F
THIEF RVR FALL CLEAR     50  46  87 S7        29.84S
CROOKSTON      CLEAR     52  46  82 S8        29.84R
FOSSTON        CLEAR     46  45  93 S6        29.87R
DETROIT LAKES  PTCLDY    50  50 100 CALM      29.88S
MOORHEAD       PTCLDY    48  48 100 CALM      29.87S
PARK RAPIDS    MOCLDY    48  46  93 N5        29.86R FOG
MAHNOMEN       FAIR      46  46  99 S5        29.87R
$$
MNZ006-009>011-018-025>026-261100-
   North Central Minnesota

CITY           SKY/WX    TMP DP  RH WIND       PRES   REMARKS
BAUDETTE       CLEAR     49  47  93 S5        29.83S
FLAG ISLAND    CLEAR     54  52  94 S7        29.79F
INTL FALLS     PTCLDY    42  41  96 CALM      29.84S
WASKISH        FOG       46  45  93 CALM      29.85S VSB 1
BIG FORK       FOG       46  45  93 CALM      29.86R VSB 1
LONGVILLE      MOCLDY    52  50  93 CALM      29.84R
GRAND RAPIDS   MOCLDY    48  46  93 CALM      29.85R
CRANE LAKE     CLOUDY    48  46  93 CALM      29.87R FOG
ORR            CLOUDY    50  46  87 CALM      29.83R
COOK           CLOUDY    52  50  93 CALM      29.85S
WALKER         FAIR      47  47  99 NW3       29.86R FOG
$$
MNZ012-019>021-037-261100-
   Northeast Minnesota

CITY           SKY/WX    TMP DP  RH WIND       PRES   REMARKS
DULUTH         FOG       53  52  96 E7        29.82R VSB 3/4
ELY            MOCLDY    52  50  93 CALM      29.83F
HIBBING        MOCLDY    51  48  89 CALM      29.84R
EVELETH        MOCLDY    52  50  93 N3        29.85R
DULUTH HARBOR  CLOUDY    46  46 100 CALM      29.83R FOG
TWO HARBORS    CLOUDY    55  52  88 CALM      29.81R
GRAND MARAIS     N/A     52  51  97 CALM      29.81R
G MARAIS ARPRT CLOUDY    52  46  82 N5        29.83R
$$
MNZ029>031-032-039>041-046>048-054>057-064-261100-
   West Central Minnesota

CITY           SKY/WX    TMP DP  RH WIND       PRES   REMARKS
FERGUS FALLS   MOCLDY    52  52 100 N6        29.87R
WHEATON        MOCLDY    48  46  93 NW7       29.88R
MORRIS         CLOUDY    52  50  93 N6        29.85R
ALEXANDRIA     CLOUDY    52  50  93 NE3       29.85R
ELBOW LAKE     FAIR      52  50  93 N8        29.86R
WADENA         MOCLDY    50  48  93 NW6       29.85R
GLENWOOD       CLOUDY    54  52  94 NE8       29.85R
APPLETON       CLOUDY    54  50  87 N7        29.84R
BENSON         CLOUDY    55  52  88 NE6       29.84R
ORTONVILLE     CLOUDY    54  48  82 N6        29.85R
MADISON        CLOUDY    54  52  94 N6        29.85R
WILLMAR        CLOUDY    57  55  94 N6        29.84S
$$
MNZ033>034-036-042>043-049>051-058-059-261100-
   Central Minnesota

CITY           SKY/WX    TMP DP  RH WIND       PRES   REMARKS
ST CLOUD       CLOUDY    55  54  96 N6        29.81R FOG
SAUK CENTRE    CLOUDY    54  51  90 N8        29.84R
PAYNESVILLE    CLOUDY    53  52  97 NW6       29.83S
AITKIN         CLOUDY    54  48  82 CALM      29.83R
PINE RIVER     CLOUDY    52  52 100 CALM      29.88R
BRAINERD       CLOUDY    54  52  93 N6        29.84R
STAPLES        CLOUDY    50  48  93 CALM      29.86R
LONG PRAIRIE   CLOUDY    52  50  93 N7        29.84R
LITTLE FALLS   CLOUDY    54  50  87 CALM      29.84R
LITCHFIELD     CLOUDY    57  57 100 N7        29.81F
BUFFALO        CLOUDY    56  55  93 N5        29.80F FOG
MAPLE LAKE     FOG       57  56  97 NW6       29.81S VSB 1
$$
MNZ037-044-045-052-053-261100-
   East Central Minnesota

CITY           SKY/WX    TMP DP  RH WIND       PRES   REMARKS
PRINCETON      CLOUDY    55  54  94 N6        29.81S FOG
MORA           CLOUDY    50  48  93 CALM      29.83S
CAMBRIDGE      HAZE      55  46  71 N5        29.78F VSB 3/4
RUSH CITY      CLOUDY    51  50  97 N6        29.81S FOG
MOOSE LAKE     CLOUDY    52  52 100 CALM      29.81R
HINCKLEY       CLOUDY    50  50 100 CALM      29.81S
CLOQUET        CLOUDY    54  52  94 CALM      29.83R FOG
MCGREGOR       CLOUDY    54  52  94 N3        29.84R
$$
MNZ071>073-080-081-089-090-097-098-261100-
   Southwest Minnesota

CITY           SKY/WX    TMP DP  RH WIND       PRES   REMARKS
MONTEVIDEO     CLOUDY    55  54  94 NE7       29.85R
GRANITE FALLS  CLOUDY    56  53  91 N6        29.85R
CANBY          CLOUDY    53  50  92 N3        29.86R
MARSHALL       CLOUDY    55  48  76 N10       29.82S
REDWOOD FALLS  LGT RAIN  55  53  93 NW7       29.80S
OLIVIA         CLOUDY    54  52  94 NW6       29.81S
PIPESTONE      CLOUDY    54  52  94 N10       29.81F
WINDOM         CLOUDY    55  54  94 N7        29.81S
WORTHINGTON    CLOUDY    55  52  88 N8        29.80F
JACKSON        CLOUDY    55  54  94 N5        29.80S
TRACY          CLOUDY    56  54  94 N6        29.82S
SLAYTON        CLOUDY    54  53  99 N8        29.82S
$$
MNZ065>067-074>077-082>085-091>093-261100-
   South Central Minnesota

CITY           SKY/WX    TMP DP  RH WIND       PRES   REMARKS
MANKATO        CLOUDY    57  54  88 NW3       29.78S
NEW ULM        CLOUDY    55  55 100 NW6       29.79S
ST JAMES       CLOUDY    57  57 100 NW7       29.79F
FAIRMONT       CLOUDY    57  52  82 N5        29.79R
GLENCOE        CLOUDY    56  55  99 NW5       29.79F
FARIBAULT      MOCLDY    57  55  94 NW3       29.78R
OWATONNA         N/A     55  54  94 CALM      29.79R FOG
WASECA         CLOUDY    55  54  94 CALM      29.79S
ALBERT LEA     MOCLDY    61  57  88 CALM      29.79R
$$
MNZ078>079-086>088-094>096-261100-
   Southeast Minnesota

CITY           SKY/WX    TMP DP  RH WIND       PRES   REMARKS
ROCHESTER      PTCLDY    59  55  87 S8        29.81R
RED WING       PTCLDY    57  57 100 CALM      29.76S
STANTON        FOG       57  55  94 CALM      29.76R VSB 1/2
DODGE CENTER   MOCLDY    61  57  88 SW6       29.79S
WINONA         CLOUDY    61  57  88 SE5       29.79R
AUSTIN         PTCLDY    61  57  88 S6        29.80R
PRESTON        PTCLDY    57  55  95 CALM      29.81R
$$
ABBREVIATIONS USED IN REMARKS
   TC - TEMPERATURES IN CELSIUS
  WCI - WIND CHILL INDEX
   HX - HEAT INDEX
  VSB - VISIBILITY
$$



USA.gov is the U.S. government's official web portal to all federal, state and local government web resources and services.